EW7186 Weather Reports


Display with metric or nautical units.
time (UTC)temp
F
wind
direction
speed
MPH
gust
MPH
rain 1hr
in
rain 24hr
in
rain mn
in
humidity
%
barometer
mb
20260509174557 72 0 0.0 3.0 0.00 0.00 0.00 74 1011.5
20260509173102 72 0 0.0 0.0 0.00 0.00 0.00 76 1011.5
20260509171552 71 215 0.0 5.0 0.00 0.00 0.00 75 1011.3
20260509170058 71 200 2.0 5.0 0.00 0.00 0.00 74 1011.6
20260509164602 71 0 0.0 6.0 0.00 0.00 0.00 74 1011.6
20260509163052 71 0 0.0 7.0 0.00 0.00 0.00 75 1011.8
20260509161558 71 219 2.0 5.0 0.00 0.00 0.00 76 1011.8
20260509160057 70 0 0.0 4.0 0.00 0.00 0.00 78 1011.8
20260509154555 70 0 1.0 5.0 0.00 0.00 0.00 79 1012.5
20260509153050 69 0 0.0 4.0 0.00 0.00 0.00 81 1012.5
20260509151550 68 0 0.0 5.0 0.00 0.00 0.00 83 1012.5
20260509150056 67 0 0.0 5.0 0.00 0.00 0.00 83 1012.5
20260509144604 67 0 1.0 4.0 0.00 0.00 0.00 83 1012.5
20260509143100 66 0 0.0 5.0 0.00 0.00 0.00 85 1012.7
20260509141553 66 221 0.0 6.0 0.00 0.00 0.00 85 1012.9
20260509140104 66 216 3.0 5.0 0.00 0.00 0.00 84 1012.9
20260509134601 66 196 1.0 5.0 0.00 0.00 0.00 85 1012.6
20260509133105 66 213 0.0 3.0 0.00 0.00 0.00 85 1012.5
20260509131612 66 0 0.0 2.0 0.00 0.00 0.00 86 1012.7
20260509124553 66 0 1.0 6.0 0.00 0.00 0.00 84 1012.8
20260509123058 66 0 0.0 2.0 0.00 0.00 0.00 84 1012.5
20260509121554 65 0 0.0 0.0 0.00 0.00 0.00 87 1012.4
20260509120058 62 0 0.0 3.0 0.00 0.00 0.00 90 1012.8
20260509114551 62 0 1.0 2.0 0.00 0.00 0.00 89 1012.9
20260509113050 62 0 0.0 2.0 0.00 0.00 0.00 90 1013.1
20260509111551 61 0 0.0 2.0 0.00 0.00 0.00 90 1013.0
20260509110052 61 0 1.0 2.0 0.00 0.00 0.00 90 1013.1
20260509104552 61 0 0.0 1.0 0.00 0.00 0.00 90 1013.0
20260509103050 60 214 0.0 2.0 0.00 0.00 0.00 90 1012.6
20260509101551 60 0 0.0 1.0 0.00 0.00 0.00 91 1012.2
20260509100050 60 0 0.0 0.0 0.00 0.00 0.00 90 1011.8
20260509094550 60 0 0.0 0.0 0.00 0.00 0.00 90 1011.8
20260509093053 61 0 0.0 0.0 0.00 0.00 0.00 89 1011.6
20260509091555 61 0 0.0 0.0 0.00 0.00 0.00 89 1011.4
20260509090050 61 0 0.0 2.0 0.00 0.00 0.00 88 1011.5
20260509084550 61 0 0.0 0.0 0.00 0.00 0.00 88 1011.5
20260509083054 62 0 0.0 0.0 0.00 0.00 0.00 87 1011.8
20260509081555 62 0 0.0 1.0 0.00 0.00 0.00 87 1011.8
20260509080049 62 0 0.0 0.0 0.00 0.00 0.00 87 1011.9
20260509074549 61 0 0.0 0.0 0.00 0.00 0.00 87 1012.0
20260509073054 61 0 0.0 0.0 0.00 0.00 0.00 87 1012.4
20260509071555 61 0 0.0 0.0 0.00 0.00 0.00 86 1012.4
20260509070059 61 0 0.0 0.0 0.00 0.00 0.00 85 1012.8
20260509064552 61 0 0.0 0.0 0.00 0.00 0.00 85 1012.9
20260509063051 61 0 0.0 0.0 0.00 0.00 0.00 85 1012.9
20260509061609 61 0 0.0 0.0 0.00 0.00 0.00 85 1013.1
20260509060111 62 0 0.0 0.0 0.00 0.00 0.00 84 1013.4
20260509054559 62 0 0.0 0.0 0.00 0.00 0.00 83 1013.7
20260509053110 62 0 0.0 0.0 0.00 0.00 0.00 83 1014.0
20260509051558 62 0 0.0 0.0 0.00 0.00 0.00 82 1014.2
20260509044601 62 0 0.0 0.0 0.00 0.00 0.00 80 1014.3
20260509043053 62 0 0.0 0.0 0.00 0.00 0.00 79 1014.5
20260509041549 62 0 0.0 0.0 0.00 0.00 0.00 79 1014.4
20260509040056 62 0 0.0 0.0 0.00 0.00 0.00 78 1014.6
20260509034551 62 0 0.0 0.0 0.00 0.00 0.00 76 1015.1
20260509033052 62 0 0.0 0.0 0.00 0.00 0.00 75 1014.8
20260509031553 63 0 0.0 0.0 0.00 0.00 0.00 74 1014.6
20260509030052 63 0 0.0 0.0 0.00 0.00 0.00 72 1014.6
20260509024552 63 0 0.0 0.0 0.00 0.00 0.00 71 1014.8
20260509023100 63 0 0.0 0.0 0.00 0.00 0.00 71 1014.8
20260509021618 63 0 0.0 0.0 0.00 0.00 0.00 71 1014.6
20260509020054 64 0 0.0 0.0 0.00 0.00 0.00 71 1014.9
20260509014550 64 0 0.0 0.0 0.00 0.00 0.00 71 1014.5
20260509013059 64 0 0.0 0.0 0.00 0.00 0.00 71 1014.6
20260509011550 64 0 0.0 0.0 0.00 0.00 0.00 71 1014.4
20260509010050 65 0 0.0 0.0 0.00 0.00 0.00 70 1014.0
20260509004552 65 0 0.0 0.0 0.00 0.00 0.00 68 1014.3
20260509003059 66 0 0.0 0.0 0.00 0.00 0.00 66 1014.1
20260509001552 66 0 0.0 0.0 0.00 0.00 0.00 65 1014.0
20260508234553 67 0 0.0 0.0 0.00 0.00 0.00 64 1013.7
20260508233053 68 0 0.0 0.0 0.00 0.00 0.00 62 1013.7
20260508231557 68 0 0.0 0.0 0.00 0.00 0.00 60 1013.8
20260508230106 69 0 0.0 0.0 0.00 0.00 0.00 58 1013.8
20260508224549 69 0 0.0 0.0 0.00 0.00 0.00 58 1013.8
20260508223051 69 0 0.0 3.0 0.00 0.00 0.00 56 1013.9
20260508221551 69 82 3.0 4.0 0.00 0.00 0.00 54 1013.9
20260508220050 69 71 2.0 4.0 0.00 0.00 0.00 56 1013.9
20260508214551 69 68 2.0 3.0 0.00 0.00 0.00 56 1014.0
20260508213050 69 71 4.0 6.0 0.00 0.00 0.00 54 1014.1
20260508211550 69 72 4.0 7.0 0.00 0.00 0.00 57 1014.0
20260508210049 69 63 5.0 7.0 0.00 0.00 0.00 58 1014.0
20260508204550 69 68 5.0 6.0 0.00 0.00 0.00 55 1014.2
20260508203052 69 72 5.0 6.0 0.00 0.00 0.00 57 1014.5
20260508201553 69 67 5.0 7.0 0.00 0.00 0.00 57 1014.7
20260508200054 68 62 4.0 6.0 0.00 0.00 0.00 57 1014.5
20260508194620 68 65 5.0 7.0 0.00 0.00 0.00 57 1014.6
20260508193051 68 63 4.0 6.0 0.00 0.00 0.00 57 1014.7
20260508191550 68 70 4.0 6.0 0.00 0.00 0.00 55 1015.1
20260508190050 67 59 3.0 6.0 0.00 0.00 0.00 56 1015.5
20260508184552 67 64 4.0 6.0 0.00 0.00 0.00 58 1015.7
20260508183050 67 62 5.0 6.0 0.00 0.00 0.00 54 1015.7
20260508181622 66 43 3.0 6.0 0.00 0.00 0.00 57 1016.0